Theta_e
327 318 317 318 302 301 298 302 304 306 307 316 328 332 331 329 322 316 338 338 348 352 357 358 365 367 367 367 366 365 363 362 362 362 361 361 361 359 360 361 362 363 363 361 361 361 361 360 357
326 321 316 308 298 294 298 305 303 305 310 318 323 326 333 329 337 337 335 338 344 358 354 357 364 365 366 366 365 364 364 363 363 363 361 361 362 361 360 361 362 362 364 361 361 360 359 358 355
326 321 308 302 298 295 296 302 304 308 313 313 316 332 332 339 344 344 347 345 345 356 356 358 363 363 365 365 364 363 363 363 363 363 362 362 362 362 361 361 362 361 362 362 361 361 360 357 354
316 312 315 303 301 305 304 302 306 307 311 313 319 316 322 333 346 350 355 362 359 358 357 360 362 362 362 363 363 363 363 363 363 362 362 362 363 362 361 362 362 363 362 361 363 362 360 357 354
315 306 305 301 303 306 304 306 307 305 307 309 313 309 310 316 325 331 350 362 361 359 357 359 362 362 362 363 362 363 363 363 362 363 362 362 362 362 362 362 362 363 363 363 362 361 360 358 356
302 302 295 295 303 308 303 305 305 305 306 307 308 309 307 313 316 316 336 362 364 360 358 357 363 363 362 361 360 361 361 362 362 362 362 362 362 362 362 362 362 362 362 362 362 361 360 358 356
298 296 295 296 301 303 304 306 303 303 304 306 307 306 307 312 316 317 316 334 361 363 357 358 359 361 363 361 360 360 359 360 361 361 361 362 362 362 361 361 361 361 361 360 360 360 359 358 357
301 297 295 297 299 299 303 304 305 305 304 310 312 304 300 309 315 315 317 317 338 356 355 355 356 358 358 358 362 360 359 359 359 360 360 360 361 361 361 359 359 361 360 360 360 360 359 358 358
303 294 294 295 298 296 301 301 306 309 307 308 310 309 310 313 313 313 312 312 313 322 351 353 352 355 352 354 359 361 361 360 359 358 358 357 354 354 357 358 358 360 360 359 359 360 359 358 358
298 293 294 300 300 298 300 302 303 305 304 306 308 310 311 311 310 309 309 308 312 316 324 352 356 354 340 353 355 355 357 355 354 354 352 352 348 345 352 354 358 357 358 358 359 359 359 359 353
298 295 300 302 306 303 301 302 304 301 300 303 303 305 308 309 308 309 309 310 314 318 322 321 325 330 331 348 353 354 355 353 344 343 351 350 349 346 347 347 350 350 356 352 355 355 354 352 349
295 302 303 302 304 302 300 302 302 303 301 307 307 308 308 307 307 311 314 317 318 321 327 330 330 328 329 331 340 351 340 338 342 341 351 350 351 348 346 345 346 347 347 348 347 348 349 349 346
299 301 303 304 300 299 305 301 301 301 307 308 309 311 308 307 309 314 319 321 322 325 330 332 331 332 335 334 333 333 335 338 346 355 354 353 350 343 345 348 347 345 347 347 347 346 342 345 345
301 301 300 301 299 300 300 302 302 305 307 308 308 307 306 309 312 315 317 319 322 327 329 331 331 333 335 337 335 334 333 333 335 348 350 352 344 335 346 343 347 347 347 345 346 343 344 343 341
302 295 300 300 301 300 302 299 300 306 307 306 307 307 308 310 317 315 318 319 323 325 328 330 332 334 334 335 337 337 335 335 330 331 343 348 347 347 350 348 347 346 348 345 343 342 343 342 343
297 296 290 299 302 303 300 293 303 304 304 304 306 307 308 313 315 316 319 320 324 326 326 329 334 330 332 335 336 337 337 336 335 333 333 340 349 349 350 350 347 346 346 345 344 343 341 339 339
295 291 291 295 302 301 298 295 304 307 305 304 305 306 309 314 315 315 318 320 324 325 325 327 328 329 331 333 336 335 336 335 334 332 333 342 349 347 350 348 347 346 346 344 343 341 340 337 337
291 292 295 294 300 300 297 298 302 304 305 304 305 306 309 312 313 316 318 320 322 323 325 326 327 328 327 332 332 333 335 331 331 332 330 332 347 343 347 347 348 348 343 340 339 338 335 334 336
298 296 295 299 302 298 297 297 300 303 303 302 305 307 308 309 313 315 317 319 319 322 324 324 324 326 325 328 328 328 328 335 331 329 329 334 339 349 346 342 343 345 342 338 337 334 332 331 333
299 296 295 298 302 299 297 297 301 303 302 304 305 305 307 308 311 313 314 316 318 317 323 324 325 323 323 326 326 327 330 334 334 331 330 329 332 344 343 343 341 343 341 336 334 332 329 329 329
297 294 295 295 299 299 297 294 298 304 305 307 306 307 307 308 307 309 311 311 311 312 321 325 324 323 323 324 325 326 328 331 331 335 336 337 337 333 328 325 325 336 334 331 332 331 328 323 325
293 300 300 298 294 288 297 288 296 299 300 303 304 304 306 309 309 310 309 311 315 316 319 320 322 322 322 321 322 320 320 323 328 331 334 333 331 328 327 325 327 326 327 327 329 332 328 325 321
296 302 298 298 294 289 293 286 291 299 297 300 304 306 307 307 307 308 310 313 315 315 315 316 317 321 320 318 320 320 319 320 325 328 328 327 329 329 328 327 326 327 327 325 324 323 324 325 324
303 299 296 294 291 284 289 288 288 293 296 299 303 306 307 307 307 308 309 311 311 314 314 314 314 315 318 318 317 317 318 318 319 323 325 328 330 328 327 325 323 324 322 320 318 318 323 326 325
299 291 283 283 283 283 293 289 288 296 300 301 301 304 306 307 306 307 309 310 311 312 311 311 312 311 315 314 316 318 316 316 318 321 324 324 325 325 326 325 326 327 326 325 325 326 327 327 326
294 291 284 278 280 283 293 286 290 299 302 304 305 304 305 304 304 307 309 310 311 313 313 310 308 310 313 314 315 317 316 315 317 320 322 325 325 326 326 327 327 328 328 325 322 322 324 319 318
294 289 295 287 288 282 287 291 295 298 299 301 302 303 302 303 304 305 307 307 309 309 312 312 311 312 312 312 313 314 315 313 318 319 319 320 322 322 321 321 322 320 318 317 316 317 316 317 317
296 299 287 287 279 278 285 286 287 293 296 300 299 300 302 303 302 303 304 305 307 308 309 311 312 311 310 311 311 314 313 314 316 316 318 314 315 314 315 315 315 315 315 314 314 313 314 313 312
293 290 290 289 287 279 278 283 293 294 296 297 299 301 301 300 301 302 304 306 307 309 308 308 310 309 308 309 310 309 312 314 314 314 313 312 310 310 311 312 312 311 311 311 311 310 309 309 307
296 292 291 284 284 286 282 285 297 296 300 300 299 301 301 302 303 303 305 307 308 307 307 307 308 307 308 308 308 307 308 311 312 313 310 309 307 308 307 309 309 308 308 308 308 306 306 304 304
Wind_Speed
8 8 3 1 5 5 7 4 4 16 11 13 15 15 11 12 9 6 6 20 12 6 6 5 6 7 8 10 9 9 9 10 10 10 10 9 9 11 10 9 8 9 10 9 7 7 6 5 4
5 8 1 1 3 3 8 1 11 6 6 17 14 12 14 5 6 5 4 20 13 10 7 6 6 7 7 9 9 7 9 10 9 9 10 10 10 9 9 9 8 6 9 10 9 8 6 5 4
4 4 3 2 1 1 3 6 8 10 8 9 8 14 6 9 8 14 15 20 22 18 15 11 10 8 8 8 8 6 7 7 7 8 9 9 9 9 9 10 8 8 7 8 8 7 6 6 5
4 3 6 4 8 10 4 5 9 10 10 12 12 9 10 9 3 4 16 23 17 14 12 19 18 12 9 8 7 7 6 7 7 6 6 6 7 8 7 8 9 9 8 7 7 7 7 6 6
2 2 2 1 10 6 6 8 8 8 5 11 10 6 9 8 4 4 12 11 11 14 7 11 17 15 13 11 10 9 8 7 6 6 7 7 7 7 7 8 8 8 8 9 8 8 7 6 6
4 3 2 3 9 7 4 6 6 9 9 10 12 14 5 5 10 9 13 20 13 15 14 9 13 15 15 15 14 11 10 9 6 5 6 6 6 8 8 8 8 8 9 9 10 10 9 9 9
4 1 7 8 15 4 3 4 7 6 9 7 4 7 2 11 10 10 8 13 12 12 13 12 12 14 13 11 8 9 8 9 10 10 9 9 9 8 8 8 8 8 9 8 8 8 8 9 9
4 3 9 8 2 2 2 4 7 8 5 4 7 4 3 1 8 10 12 10 10 11 8 8 6 6 7 6 12 7 7 8 8 11 14 13 11 9 9 9 10 11 10 10 10 10 10 10 10
1 2 6 6 9 2 3 6 4 2 3 1 5 7 4 6 8 9 8 10 10 8 8 7 3 2 1 4 7 10 11 9 8 6 6 6 3 7 10 12 13 15 15 14 13 13 12 11 12
5 4 8 3 4 4 3 6 6 6 8 7 7 9 11 9 8 7 8 9 13 14 12 8 5 1 3 2 3 4 6 7 7 10 11 6 5 6 10 12 17 17 17 17 16 15 15 13 6
3 4 4 5 5 5 4 8 4 4 5 5 6 7 9 6 7 8 8 8 7 8 10 8 4 5 3 2 3 2 2 5 5 7 4 6 7 7 6 6 8 8 13 7 10 9 8 9 8
1 6 6 4 5 6 5 3 6 3 1 8 6 4 4 8 8 9 11 10 11 13 13 15 11 9 8 3 3 5 3 5 5 2 7 5 6 8 7 4 5 8 7 8 7 6 8 9 10
2 4 0 6 1 2 7 6 4 6 4 8 4 1 2 6 7 10 9 11 12 15 16 17 16 15 13 11 6 1 5 5 8 6 8 10 9 7 5 4 4 6 6 7 8 7 5 8 10
3 4 0 6 5 3 3 6 4 11 4 7 3 3 2 8 10 10 11 9 11 12 11 12 13 12 12 11 9 6 6 7 3 4 7 12 7 5 5 5 5 5 4 5 6 5 5 5 4
4 2 7 5 6 4 6 9 6 15 7 8 6 8 8 10 12 10 9 10 10 7 10 10 10 9 9 9 9 7 7 9 6 3 9 11 12 8 10 5 5 5 4 4 4 3 2 1 3
4 3 4 10 8 5 9 7 10 1 8 10 10 7 8 11 12 10 10 9 9 8 8 6 6 7 9 10 8 7 7 7 8 7 7 9 13 13 8 6 5 5 5 4 4 3 3 4 3
4 5 4 3 10 6 6 6 4 8 6 6 7 6 10 13 11 9 10 9 8 7 5 4 5 6 7 10 10 9 8 7 8 7 8 7 10 12 8 6 5 6 5 5 5 5 4 3 3
6 7 8 6 8 5 6 8 9 8 8 10 9 8 9 11 9 9 9 8 8 6 5 4 4 7 7 6 9 9 10 6 5 8 9 9 7 9 9 7 9 9 5 5 3 5 1 2 4
4 6 7 6 7 6 8 8 11 12 10 9 11 9 9 10 8 8 7 7 6 5 6 5 6 5 5 6 9 11 12 12 9 8 8 9 8 10 9 7 6 8 9 7 3 2 3 3 3
7 6 6 6 11 10 11 15 14 11 2 8 9 8 9 8 8 9 9 8 5 2 6 6 5 5 4 4 6 6 10 12 10 9 11 12 13 10 10 9 3 2 8 4 3 2 2 2 1
5 7 8 7 9 8 6 10 10 15 8 9 8 8 7 10 9 8 8 7 7 11 7 4 4 7 5 8 7 10 11 11 10 12 10 10 12 8 7 8 9 6 7 3 2 3 5 1 2
5 8 9 8 6 4 2 10 15 2 13 4 7 6 8 8 10 8 6 14 15 12 12 10 7 8 8 8 9 13 11 13 11 11 12 7 10 8 9 7 7 6 3 6 2 2 2 2 3
5 1 5 8 10 4 9 3 6 16 14 19 19 17 23 20 18 17 20 16 9 10 8 8 12 11 10 8 10 9 12 11 10 10 13 12 8 6 8 7 7 7 3 2 9 2 4 1 2
5 9 8 5 2 2 2 1 6 6 7 11 11 13 10 10 12 13 12 11 11 9 8 6 9 6 8 8 7 8 10 12 12 12 9 8 7 7 4 5 6 5 7 8 7 5 5 4 4
9 7 6 6 6 5 15 8 2 3 6 9 9 9 9 9 11 12 14 12 10 10 9 8 6 4 4 7 7 7 7 8 12 12 7 8 7 5 6 4 2 7 5 7 6 5 6 5 5
4 2 4 5 3 5 5 4 1 5 6 7 9 7 7 7 5 6 8 9 8 7 7 9 8 7 4 5 6 5 5 5 5 8 8 6 7 9 14 13 11 8 3 4 6 6 6 6 5
4 3 5 1 5 4 4 5 3 9 6 8 8 10 8 9 9 8 8 7 7 7 4 7 11 7 7 2 2 4 4 6 6 7 6 5 7 7 10 10 9 9 8 9 7 4 6 7 6
7 7 4 5 2 6 3 4 5 8 5 6 6 8 8 8 8 7 5 4 5 6 5 8 12 7 7 7 4 2 2 4 5 5 6 6 5 6 9 9 8 6 6 7 7 5 6 5 4
8 4 4 3 3 3 4 5 6 13 5 6 9 7 7 6 6 4 4 4 7 7 6 7 6 8 8 8 7 7 6 5 6 5 4 6 5 7 8 8 6 7 6 6 6 6 6 5 6
3 1 1 5 7 6 5 9 4 3 5 14 8 8 4 3 3 5 6 6 6 7 7 8 9 9 11 11 10 7 7 7 6 5 5 5 6 7 6 9 6 6 6 6 7 5 6 6 6
Wind_Direction
315 303 256 354 28 69 291 290 353 31 27 78 87 102 134 131 151 203 244 211 226 240 196 133 106 103 105 108 119 124 123 127 133 134 134 135 133 132 130 134 132 138 143 145 147 148 146 140 129
332 306 294 289 80 25 282 24 17 19 39 114 77 95 96 98 133 134 97 216 221 175 173 135 130 120 114 109 118 132 133 139 141 145 148 149 145 141 142 146 147 156 154 155 156 158 158 148 138
285 241 45 121 267 303 293 10 4 340 36 17 80 56 33 118 177 163 227 175 189 173 153 150 151 134 120 121 117 126 126 134 142 152 155 159 154 154 155 157 166 170 174 162 166 167 161 159 158
315 33 349 81 283 285 279 21 359 354 18 52 135 61 68 62 103 208 173 147 157 152 156 154 152 147 134 126 127 133 139 141 151 158 159 166 161 162 165 172 175 183 188 189 190 182 176 178 182
248 332 13 249 274 289 43 30 5 0 29 40 47 70 55 25 84 122 82 63 176 141 149 160 150 146 147 154 155 164 156 150 159 166 171 174 178 182 180 183 191 199 204 202 205 195 198 204 213
335 116 15 255 249 273 39 43 23 23 40 24 60 78 27 1 3 328 110 173 157 155 151 152 147 154 167 175 169 168 158 157 163 175 180 188 195 192 193 199 201 209 220 221 217 208 203 210 216
198 41 258 253 268 340 86 358 60 19 47 33 38 94 34 5 339 339 357 140 174 134 156 159 163 161 178 177 150 161 161 164 170 179 191 194 192 200 206 208 220 221 224 234 242 237 225 220 226
176 106 292 294 299 129 63 24 94 60 52 29 62 78 53 15 1 355 346 339 138 150 141 114 129 179 165 140 177 163 164 178 200 198 186 189 193 196 207 216 218 222 222 221 224 229 231 230 235
177 24 275 340 4 64 35 61 40 122 31 88 114 94 89 38 33 359 351 358 28 69 139 109 120 76 345 189 170 159 158 180 197 230 253 240 230 193 202 211 209 215 216 216 218 222 227 230 231
132 123 236 94 24 22 60 51 64 41 357 24 43 26 34 25 3 352 345 10 35 46 58 73 50 72 257 281 96 177 162 214 211 195 186 180 231 232 208 209 218 220 218 218 217 219 220 224 221
224 178 32 52 37 12 7 32 78 24 39 79 54 25 23 1 360 37 41 60 49 39 42 100 119 125 123 33 75 265 247 244 237 236 155 165 218 232 220 192 217 208 219 223 223 225 224 221 224
52 68 48 60 43 1 39 38 344 18 93 108 66 38 13 18 18 51 47 40 35 33 30 15 21 22 359 110 156 200 228 268 274 253 162 198 216 210 222 239 185 193 200 210 220 219 229 226 233
144 120 82 97 237 91 38 328 267 279 103 107 83 350 34 49 55 65 65 49 44 43 28 13 6 8 0 3 347 196 207 237 242 227 195 197 219 215 214 208 181 193 189 198 219 216 207 225 234
344 353 215 158 241 141 185 264 341 279 195 137 172 240 131 84 87 64 54 53 51 45 34 23 13 360 353 349 339 319 319 310 223 227 222 201 211 210 211 206 215 204 186 194 211 205 206 220 206
300 212 275 228 204 199 92 319 265 241 163 164 211 239 124 101 89 86 83 70 68 54 43 27 9 1 349 337 328 324 310 316 305 239 226 218 204 214 209 183 210 205 209 230 258 257 229 254 293
256 280 261 238 192 204 107 261 282 183 161 200 219 219 134 97 102 89 92 84 74 65 53 36 16 354 339 329 313 303 298 295 296 292 289 210 209 204 204 186 200 208 211 195 216 237 263 253 257
308 279 207 112 202 164 158 249 314 334 343 264 248 202 120 105 94 97 101 101 105 104 81 52 26 1 339 336 335 321 294 287 283 285 283 248 203 191 183 188 205 205 208 196 197 224 200 220 267
326 355 348 357 338 23 10 345 340 319 316 292 275 115 109 116 128 117 114 117 126 128 115 87 32 3 348 354 349 335 323 300 287 287 284 271 221 209 192 193 202 203 188 211 193 193 236 225 240
318 322 310 305 24 38 344 337 306 288 278 280 107 119 118 117 131 115 106 118 120 149 130 100 54 3 17 4 356 346 333 320 303 296 279 289 258 210 203 205 213 212 189 213 166 101 181 281 251
302 318 340 350 2 15 339 302 278 284 203 116 111 111 125 116 87 78 70 61 60 3 111 89 70 31 21 9 353 344 329 320 302 297 288 281 274 221 190 203 220 355 338 70 1 299 285 247 203
333 43 11 354 344 325 304 314 309 291 129 132 120 121 118 115 101 90 71 57 28 18 78 102 76 48 26 16 360 358 348 341 343 336 329 329 331 25 53 97 89 61 151 118 121 147 138 183 293
2 17 14 334 339 288 11 288 298 352 25 40 119 61 35 114 82 62 59 55 50 30 23 8 29 40 24 24 18 16 359 343 336 339 337 348 21 24 24 22 43 86 72 38 293 282 98 120 284
267 339 282 278 274 339 344 28 1 42 40 47 48 43 41 39 49 41 37 34 36 36 34 38 25 14 7 13 31 18 2 345 334 343 348 351 349 28 56 38 16 3 52 309 262 22 355 210 191
340 9 329 291 265 75 252 265 345 21 44 71 54 45 58 46 31 29 32 25 24 33 17 23 42 28 5 345 10 43 13 343 340 347 5 1 3 357 8 89 88 30 350 324 302 315 288 299 258
23 17 334 346 14 250 356 5 236 60 77 79 74 76 51 45 44 39 25 16 12 347 16 3 25 357 352 347 349 22 14 358 341 339 344 15 359 2 345 302 318 126 77 272 301 344 343 356 16
5 44 156 287 330 271 287 251 223 72 111 89 84 90 85 68 65 45 55 22 1 13 356 344 331 325 10 327 353 14 1 358 332 331 333 4 15 18 8 24 9 350 25 13 2 355 3 11 5
349 342 227 320 287 28 241 38 137 46 67 57 82 78 52 33 26 28 23 11 331 348 358 304 289 311 327 298 351 355 357 349 338 335 324 359 32 33 24 2 6 2 355 4 14 3 2 357 338
180 226 351 338 305 277 257 320 285 34 65 55 22 79 65 43 24 28 14 356 314 299 283 282 269 300 348 337 355 343 358 330 332 338 344 349 20 22 62 35 8 1 5 348 14 19 7 11 353
332 7 21 122 122 235 312 251 355 319 152 150 86 84 76 56 10 345 288 282 253 272 300 313 8 2 352 4 352 357 343 335 338 340 8 347 14 29 37 52 16 355 8 5 32 26 18 15 10
246 9 83 122 270 245 214 273 269 56 100 98 94 96 86 169 195 278 280 288 311 323 334 6 22 14 352 355 352 342 336 333 331 16 3 12 15 23 32 42 34 22 22 21 38 46 42 35 32